Meteo Giornale » Osservazioni meteo Svizzera » Lugano

ore: 19:50 - Osservazioni Meteo Lugano
Lat. 46° 0' N Lon. 8° 58' E Alt. 273 metri s.l.m.

sereno Europe/Zurich

22 °C

Sereno

Temp. 24 Ore

11 °C

25 °C

Sud/Sud-Ovest

9.3 Km/h

Dew point 12 °C

Umidità 53 %

Visibilità  10 Km

Il sole sorge alle ore 06:19

Il sole tramonta alle ore 20:24

Data e Ora Cielo e Fenomeni T °C DP °C Um. % Pres. hPa Vis. km Vento km/h
Oggi h: 19:50 sereno Sereno 22 12 53 1015 10 S/SO 9.3
Oggi h: 19:20 sereno Sereno 23 11 46 1015 10 S/SO 11.1
Oggi h: 18:20 poco_nuvoloso Poco Nuvoloso 25 11 41 1015 10 S 14.8
Oggi h: 17:50 poco_nuvoloso Poco Nuvoloso 25 11 41 1015 10 S 14.8
Oggi h: 17:20 poco_nuvoloso Poco Nuvoloso 25 11 41 1015 10 S 16.7
Oggi h: 16:50 poco_nuvoloso Poco Nuvoloso 25 12 44 1016 10 S/SO 14.8
Oggi h: 16:20 poco_nuvoloso Poco Nuvoloso 25 11 41 1016 10 S/SO 16.7
Oggi h: 15:50 poco_nuvoloso Poco Nuvoloso 25 12 44 1016 10 S/SO 20.3
Oggi h: 15:20 poco_nuvoloso Poco Nuvoloso 25 12 44 1016 10 S/SO 20.3
Oggi h: 14:50 poco_nuvoloso Poco Nuvoloso 25 12 44 1017 10 S/SO 20.3
Oggi h: 14:20 poco_nuvoloso Poco Nuvoloso 25 12 44 1017 10 S/SO 20.3
Oggi h: 13:50 poco_nuvoloso Poco Nuvoloso 25 11 41 1017 10 S/SO 18.5
Oggi h: 13:20 poco_nuvoloso Poco Nuvoloso 24 11 43 1017 10 S/SO 14.8
Oggi h: 12:50 poco_nuvoloso Poco Nuvoloso 24 10 41 1017 10 S 11.1
Oggi h: 12:20 sereno Sereno 24 11 43 1017 10 S 11.1
Oggi h: 11:50 sereno Sereno 23 10 43 1018 10 S/SO 11.1
Oggi h: 11:20 sereno Sereno 22 10 46 1018 10 S 9.3
Oggi h: 10:50 sereno Sereno 21 11 52 1018 10 S 9.3
Oggi h: 10:20 sereno Sereno 20 11 56 1018 10 N 5.5
Oggi h: 09:50 sereno Sereno 19 9 52 1018 10 S 7.4
Oggi h: 09:20 sereno Sereno 18 10 59 1018 10 S/SO 7.4
Oggi h: 08:50 sereno Sereno 17 10 63 1018 10 S 7.4
Oggi h: 08:20 sereno Sereno 14 10 76 1018 10 N 5.5
Oggi h: 07:50 sereno Sereno 13 10 81 1017 10 N 5.5
Oggi h: 07:20 sereno Sereno 12 10 87 1017 10 N 3.7
Oggi h: 06:50 sereno Sereno 11 10 93 1017 10 N 1.8
Oggi h: 06:20 sereno Sereno 11 10 93 1016 10 N 3.7
Oggi h: 05:50 sereno Sereno 12 10 87 1016 10 N 3.7
Oggi h: 05:20 sereno Sereno 12 10 87 1016 10 N 3.7
Oggi h: 04:50 sereno Sereno 13 10 81 1016 10 N 1.8
Oggi h: 04:20 sereno Sereno 13 11 87 1016 10 N 3.7
Oggi h: 03:50 sereno Sereno 13 11 87 1016 10 N 1.8
Oggi h: 03:20 sereno Sereno 14 11 82 1016 10 N 3.7
Oggi h: 02:50 sereno Sereno 13 12 93 1016 10 N 3.7
Oggi h: 02:20 sereno Sereno 13 12 93 1016 10 N 3.7
Oggi h: 01:50 sereno Sereno 14 12 87 1016 10 N 3.7
Oggi h: 01:20 sereno Sereno 15 12 82 1016 10 N 5.5
Oggi h: 00:50 sereno Sereno 15 12 82 1016 10 N 1.8
Oggi h: 00:20 sereno Sereno 15 13 87 1016 10 N 3.7
Ieri h: 23:50 sereno Sereno 16 13 82 1016 10 N 3.7
Ieri h: 23:20 sereno Sereno 17 13 77 1016 10 N 1.8
Ieri h: 22:50 poco_nuvoloso Poco Nuvoloso 17 14 82 1016 10 N 3.7
Ieri h: 22:20 molto_nuvoloso Molto Nuvoloso 17 14 82 1016 10 N 5.5
Ieri h: 21:50 coperto Coperto 18 14 77 1016 10 N 3.7
Ieri h: 21:20 coperto Coperto 18 14 77 1016 10 N 9.3
Ieri h: 20:50 molto_nuvoloso Molto Nuvoloso 17 14 82 1015 10 N 11.1